| time (UTC) | temp F | wind direction | speed MPH | gust MPH | rain 1hr in | rain 24hr in | rain mn in | humidity % | barometer mb |
| 20260502183047 | 55 | 0 | 0.0 | 1.0 | 0.02 | 0.32 | 0.32 | 92 | 1017.6 |
| 20260502181547 | 54 | 0 | 0.0 | 1.0 | 0.03 | 0.32 | 0.32 | 91 | 1017.8 |
| 20260502163057 | 59 | 0 | 0.0 | 1.0 | 0.07 | 0.07 | 0.07 | 85 | 1018.8 |
| 20260502161550 | 60 | 0 | 0.0 | 1.0 | 0.03 | 0.03 | 0.03 | 81 | 1018.8 |
| 20260502151612 | 65 | 101 | 0.0 | 4.0 | 0.00 | 0.00 | 0.00 | 63 | 1018.8 |
| 20260502123051 | 67 | 221 | 0.0 | 4.0 | 0.00 | 0.00 | 0.00 | 59 | 1021.2 |
| 20260502121553 | 66 | 269 | 1.0 | 6.0 | 0.00 | 0.00 | 0.00 | 60 | 1021.4 |
| 20260502114550 | 63 | 163 | 2.0 | 9.0 | 0.00 | 0.00 | 0.00 | 64 | 1022.0 |
| 20260502113102 | 64 | 159 | 1.0 | 3.0 | 0.00 | 0.00 | 0.00 | 65 | 1022.1 |
| 20260502111549 | 62 | 213 | 3.0 | 6.0 | 0.00 | 0.00 | 0.00 | 67 | 1022.2 |
| 20260502110050 | 63 | 207 | 1.0 | 4.0 | 0.00 | 0.00 | 0.00 | 67 | 1022.7 |
| 20260502104607 | 63 | 246 | 0.0 | 5.0 | 0.00 | 0.00 | 0.00 | 64 | 1022.5 |
| 20260502103050 | 62 | 165 | 0.0 | 4.0 | 0.00 | 0.00 | 0.00 | 68 | 1022.7 |
| 20260502101608 | 61 | 271 | 1.0 | 6.0 | 0.00 | 0.00 | 0.00 | 69 | 1022.9 |
| 20260502064552 | 50 | 247 | 0.0 | 1.0 | 0.00 | 0.00 | 0.00 | 92 | 1024.0 |
| 20260502063049 | 49 | 0 | 0.0 | 0.0 | 0.00 | 0.00 | 0.00 | 93 | 1024.1 |
| 20260502061550 | 48 | 0 | 0.0 | 0.0 | 0.00 | 0.00 | 0.00 | 94 | 1024.1 |
| 20260502060056 | 46 | 0 | 0.0 | 0.0 | 0.00 | 0.00 | 0.00 | 94 | 1024.2 |
| 20260502054603 | 45 | 0 | 0.0 | 0.0 | 0.00 | 0.00 | 0.00 | 93 | 1024.2 |
| 20260502053055 | 45 | 0 | 0.0 | 0.0 | 0.00 | 0.00 | 0.00 | 93 | 1024.0 |
| 20260502051553 | 44 | 0 | 0.0 | 0.0 | 0.00 | 0.00 | 0.00 | 93 | 1024.0 |
| 20260502050054 | 44 | 0 | 0.0 | 0.0 | 0.00 | 0.00 | 0.00 | 93 | 1024.2 |
| 20260502044553 | 44 | 0 | 0.0 | 0.0 | 0.00 | 0.00 | 0.00 | 93 | 1024.1 |
| 20260502043109 | 44 | 0 | 0.0 | 0.0 | 0.00 | 0.00 | 0.00 | 92 | 1024.3 |
| 20260502041612 | 44 | 0 | 0.0 | 0.0 | 0.00 | 0.00 | 0.00 | 92 | 1024.2 |
| 20260502040057 | 44 | 0 | 0.0 | 0.0 | 0.00 | 0.00 | 0.00 | 92 | 1024.4 |
| 20260502034553 | 45 | 0 | 0.0 | 0.0 | 0.00 | 0.00 | 0.00 | 91 | 1024.4 |
| 20260502033053 | 45 | 0 | 0.0 | 0.0 | 0.00 | 0.00 | 0.00 | 91 | 1024.5 |
| 20260502031551 | 45 | 0 | 0.0 | 0.0 | 0.00 | 0.00 | 0.00 | 91 | 1024.4 |
| 20260502030109 | 46 | 0 | 0.0 | 0.0 | 0.00 | 0.00 | 0.00 | 91 | 1024.4 |
| 20260502024600 | 46 | 0 | 0.0 | 0.0 | 0.00 | 0.00 | 0.00 | 91 | 1024.5 |
| 20260502023125 | 47 | 0 | 0.0 | 0.0 | 0.00 | 0.00 | 0.00 | 90 | 1024.7 |
| 20260502021551 | 47 | 0 | 0.0 | 0.0 | 0.00 | 0.00 | 0.00 | 91 | 1024.8 |
| 20260502020052 | 48 | 0 | 0.0 | 0.0 | 0.00 | 0.00 | 0.00 | 90 | 1024.8 |
| 20260502014603 | 48 | 0 | 0.0 | 0.0 | 0.00 | 0.00 | 0.00 | 89 | 1024.8 |
| 20260502013057 | 49 | 0 | 0.0 | 0.0 | 0.00 | 0.00 | 0.00 | 89 | 1024.9 |
| 20260502011604 | 49 | 0 | 0.0 | 0.0 | 0.00 | 0.00 | 0.00 | 89 | 1024.9 |
| 20260502010049 | 49 | 0 | 0.0 | 0.0 | 0.00 | 0.00 | 0.00 | 89 | 1025.1 |
| 20260502004551 | 50 | 0 | 0.0 | 0.0 | 0.00 | 0.00 | 0.00 | 88 | 1025.4 |
| 20260502003050 | 50 | 201 | 0.0 | 1.0 | 0.00 | 0.00 | 0.00 | 88 | 1025.5 |
| 20260502001558 | 51 | 186 | 0.0 | 1.0 | 0.00 | 0.00 | 0.00 | 88 | 1025.5 |
| 20260501234556 | 51 | 240 | 0.0 | 2.0 | 0.00 | 0.00 | 0.00 | 87 | 1025.6 |
| 20260501233118 | 51 | 155 | 0.0 | 2.0 | 0.00 | 0.00 | 0.00 | 85 | 1025.7 |
| 20260501231626 | 51 | 176 | 0.0 | 2.0 | 0.00 | 0.00 | 0.00 | 85 | 1025.8 |
| 20260501230119 | 51 | 198 | 0.0 | 1.0 | 0.00 | 0.00 | 0.00 | 84 | 1025.7 |
| 20260501224610 | 52 | 178 | 0.0 | 1.0 | 0.00 | 0.00 | 0.00 | 83 | 1025.7 |
| 20260501223102 | 52 | 0 | 0.0 | 1.0 | 0.00 | 0.00 | 0.00 | 83 | 1025.7 |
| 20260501221604 | 52 | 235 | 0.0 | 1.0 | 0.00 | 0.00 | 0.00 | 82 | 1025.8 |
| 20260501220104 | 53 | 194 | 1.0 | 2.0 | 0.00 | 0.00 | 0.00 | 81 | 1025.7 |
| 20260501214554 | 53 | 162 | 1.0 | 3.0 | 0.00 | 0.00 | 0.00 | 82 | 1025.7 |
| 20260501213053 | 53 | 163 | 0.0 | 1.0 | 0.00 | 0.00 | 0.00 | 82 | 1025.6 |
| 20260501211553 | 54 | 161 | 0.0 | 1.0 | 0.00 | 0.00 | 0.00 | 82 | 1025.6 |
| 20260501210051 | 54 | 201 | 0.0 | 2.0 | 0.00 | 0.00 | 0.00 | 83 | 1025.6 |
| 20260501204553 | 54 | 236 | 0.0 | 2.0 | 0.00 | 0.00 | 0.00 | 83 | 1025.6 |
| 20260501203051 | 55 | 195 | 0.0 | 2.0 | 0.00 | 0.00 | 0.00 | 83 | 1025.6 |
| 20260501201549 | 56 | 200 | 0.0 | 1.0 | 0.00 | 0.00 | 0.00 | 84 | 1025.6 |
| 20260501200052 | 56 | 222 | 0.0 | 1.0 | 0.00 | 0.00 | 0.00 | 84 | 1025.6 |
| 20260501194548 | 57 | 0 | 0.0 | 1.0 | 0.00 | 0.00 | 0.00 | 84 | 1025.6 |
| 20260501193048 | 58 | 192 | 0.0 | 1.0 | 0.00 | 0.00 | 0.00 | 84 | 1025.6 |
| 20260501191548 | 58 | 190 | 0.0 | 1.0 | 0.00 | 0.00 | 0.00 | 83 | 1025.4 |
| 20260501190050 | 59 | 0 | 0.0 | 2.0 | 0.00 | 0.00 | 0.00 | 83 | 1025.5 |
| 20260501184551 | 59 | 188 | 0.0 | 4.0 | 0.00 | 0.00 | 0.00 | 82 | 1025.5 |